{"data":{"norad_id":64869,"intl_designator":"2025-154A","name":"LIDE","alt_names":[],"object_type":"PAYLOAD","status":"ACTIVE","operator":null,"country":"IT","launch_date":"2025-07-23","launch_site_code":"AFWTR","launch_vehicle":null,"mission":null,"orbit_class":"UNKNOWN","rcs_meters":null,"size_class":null,"mass_kg":null,"dimensions":null,"purposes":[],"wikipedia_slug":null,"has_3d_model":false,"image_url":null,"decayed_at":null,"tle_current":{"epoch":"2026-05-25T03:46:15.028896Z","epoch_age_seconds":57514,"freshness":"FRESH","line1":"1 64869U 25154A   26145.15711839  .00002086  00000+0  20000-3 0  9993","line2":"2 64869  97.6729 209.5091 0004117 320.2967  39.7952 14.94180967 45567","mean_motion":14.94180967,"eccentricity":0.0004117,"inclination_deg":97.6729,"raan_deg":209.5091,"arg_perigee_deg":320.2967,"mean_anomaly_deg":39.7952,"bstar":0.0002,"rev_number":4556,"period_min":96.373868480685,"perigee_km":582.04942493566,"apogee_km":587.78280286964,"semimajor_km":6963.0531139026,"source":"CELESTRAK","updated_at":"2026-05-25T13:38:04.867265Z"}}}